Hourly Data Report for November 22, 2016

ABBOTSFORD A
BRITISH COLUMBIA

49°01'31.000" N
122°21'36.000" W
59.10 m
1100031
71108
YXX

Download Data

Hourly Data (November 2016)
Hourly Data Report for November 22, 2016
TIME
LST
Temp Definition
°C
Dew Point Definition
°C
Rel Hum Definition
%
Precip. Amount Definition
mm

Wind Dir Definition
10's deg

Wind Spd Definition
km/h
Visibility Definition
km
Stn Press Definition
kPa
Hmdx Definition


Wind Chill Definition


Weather Definition


00:00 6.1 5.4 95   3 14 16.1 101.04     LegendNANA
01:00 6.2 5.6 96   5 10 16.1 101.01     Cloudy
02:00 6.2 5.5 95   2 9 16.1 100.97     LegendNANA
03:00 6.5 5.1 91   3 12 16.1 100.91     LegendNANA
04:00 5.0 4.4 96   3 13 16.1 100.83     Mainly Clear
05:00 5.5 4.8 95   4 9 16.1 100.80     LegendNANA
06:00 6.2 4.5 89   7 16 16.1 100.75     LegendNANA
07:00 6.9 4.1 82   6 23 48.3 100.68     Mostly Cloudy
08:00 5.9 4.4 90   1 6 48.3 100.69     Rain
09:00 6.6 4.1 84   8 15 32.2 100.64     Rain
10:00 6.2 5.0 92   36 3 24.1 100.65     Rain
11:00 6.2 5.3 94   1 7 24.1 100.59     Rain
12:00 6.3 5.7 96   4 8 32.2 100.55     Rain
13:00 6.4 5.5 94   1 19 32.2 100.48     Rain
14:00 6.5 5.8 95   4 12 32.2 100.42     Rain
15:00 6.6 5.6 93   5 14 32.2 100.32     Rain
16:00 6.3 5.6 95   3 13 24.1 100.29     Rain
17:00 6.2 5.8 97   3 8 16.1 100.25     Rain
18:00 6.2 5.8 97   2 7 16.1 100.21     Rain
19:00 6.1 5.8 98   1 9 16.1 100.21     Rain
20:00 5.9 5.6 98   3 9 6.4 100.16     Rain
21:00 5.8 5.5 98   3 6 6.4 100.18     Rain
22:00 5.8 5.7 99   5 4 4.8 100.23     Rain
23:00 6.5 6.1 97   18 11 4.8 100.30     Rain

Notes on Data Quality.

Legend

  • E = Estimated
  • M = Missing
  • NA = Not Available*
  • [empty] = Indicates an unobserved value
Date modified: